Time,TemperatureF,DewpointF,PressureIn,WindDirection,WindDirectionDegrees,WindSpeedMPH,WindSpeedGustMPH,Humidity,HourlyPrecipIn,Conditions,Clouds,dailyrainin,SoftwareType,DateUTC
2013-02-21 00:00:00,22.1,17.2,29.76,NNW,345,0.0,6.0,81,0.00,,,0.00,meteohub,2013-02-21 05:00:00,
2013-02-21 00:01:00,22.1,17.2,29.76,North,8,3.0,5.0,81,0.00,,,0.00,meteohub,2013-02-21 05:01:00,
2013-02-21 00:02:00,22.1,17.2,29.76,NNW,341,1.0,5.0,81,0.00,,,0.00,meteohub,2013-02-21 05:02:00,
2013-02-21 00:05:00,21.9,17.1,29.76,SSE,151,2.0,5.0,81,0.00,,,0.00,meteohub,2013-02-21 05:05:00,
2013-02-21 00:10:00,21.9,17.2,29.76,SSE,156,0.0,10.0,82,0.00,,,0.00,meteohub,2013-02-21 05:10:00,
2013-02-21 00:15:00,21.9,17.2,29.76,North,353,1.0,10.0,82,0.00,,,0.00,meteohub,2013-02-21 05:15:00,
2013-02-21 00:20:00,21.7,17.1,29.77,NW,305,5.0,10.0,82,0.00,,,0.00,meteohub,2013-02-21 05:20:00,
2013-02-21 00:25:00,21.7,16.9,29.77,North,357,6.0,11.0,81,0.00,,,0.00,meteohub,2013-02-21 05:25:00,
2013-02-21 00:30:00,21.7,17.1,29.77,NW,325,7.0,11.0,82,0.00,,,0.00,meteohub,2013-02-21 05:30:00,
2013-02-21 00:35:00,21.7,17.1,29.77,NW,324,2.0,9.0,82,0.00,,,0.00,meteohub,2013-02-21 05:35:00,
2013-02-21 00:40:00,21.7,16.9,29.76,NW,316,2.0,9.0,81,0.00,,,0.00,meteohub,2013-02-21 05:40:00,
2013-02-21 00:45:00,21.7,16.9,29.76,SW,218,2.0,9.0,81,0.00,,,0.00,meteohub,2013-02-21 05:45:00,
2013-02-21 00:50:00,21.6,16.7,29.77,WNW,299,2.0,9.0,81,0.00,,,0.00,meteohub,2013-02-21 05:50:00,
2013-02-21 00:56:00,21.6,16.7,29.77,WNW,284,4.0,11.0,81,0.00,,,0.00,meteohub,2013-02-21 05:56:00,
2013-02-21 01:01:00,21.6,16.7,29.76,SE,145,1.0,11.0,81,0.00,,,0.00,meteohub,2013-02-21 06:01:00,
2013-02-21 01:06:00,21.6,16.9,29.77,SE,132,0.0,10.0,82,0.00,,,0.00,meteohub,2013-02-21 06:06:00,
2013-02-21 01:11:00,21.4,16.5,29.76,SSE,159,0.0,10.0,81,0.00,,,0.00,meteohub,2013-02-21 06:11:00,
2013-02-21 01:16:00,21.4,16.7,29.77,NNW,347,3.0,9.0,82,0.00,,,0.00,meteohub,2013-02-21 06:16:00,
2013-02-21 01:21:00,21.4,16.7,29.77,NNW,334,7.0,9.0,82,0.00,,,0.00,meteohub,2013-02-21 06:21:00,
2013-02-21 01:26:00,21.2,16.5,29.77,SE,135,0.0,7.0,82,0.00,,,0.00,meteohub,2013-02-21 06:26:00,
2013-02-21 01:31:00,21.2,16.5,29.77,NW,313,0.0,7.0,82,0.00,,,0.00,meteohub,2013-02-21 06:31:00,
2013-02-21 01:36:00,21.0,16.2,29.77,SE,142,0.0,7.0,81,0.00,,,0.00,meteohub,2013-02-21 06:36:00,
2013-02-21 01:41:00,21.0,15.8,29.77,WSW,241,1.0,3.0,80,0.00,,,0.00,meteohub,2013-02-21 06:41:00,
2013-02-21 01:46:00,21.0,15.8,29.77,SSE,156,0.0,4.0,80,0.00,,,0.00,meteohub,2013-02-21 06:46:00,
2013-02-21 01:51:00,21.0,15.8,29.77,NW,304,0.0,5.0,80,0.00,,,0.00,meteohub,2013-02-21 06:51:00,
2013-02-21 01:56:00,21.0,15.6,29.78,SSE,158,0.0,5.0,79,0.00,,,0.00,meteohub,2013-02-21 06:56:00,
2013-02-21 02:01:00,20.8,15.1,29.77,ESE,117,1.0,5.0,78,0.00,,,0.00,meteohub,2013-02-21 07:01:00,
2013-02-21 02:06:00,20.8,14.7,29.78,NW,305,4.0,13.0,77,0.00,,,0.00,meteohub,2013-02-21 07:06:00,
2013-02-21 02:11:00,20.8,14.5,29.78,North,351,1.0,13.0,76,0.00,,,0.00,meteohub,2013-02-21 07:11:00,
2013-02-21 02:16:00,20.7,14.5,29.78,West,268,0.0,13.0,77,0.00,,,0.00,meteohub,2013-02-21 07:16:00,
2013-02-21 02:21:00,20.7,14.4,29.78,South,181,0.0,8.0,76,0.00,,,0.00,meteohub,2013-02-21 07:21:00,
2013-02-21 02:27:00,20.7,14.4,29.78,NNW,338,0.0,7.0,76,0.00,,,0.00,meteohub,2013-02-21 07:27:00,
2013-02-21 02:32:00,20.5,14.4,29.78,NW,315,3.0,7.0,77,0.00,,,0.00,meteohub,2013-02-21 07:32:00,
2013-02-21 02:37:00,20.1,14.0,29.78,West,264,2.0,7.0,77,0.00,,,0.00,meteohub,2013-02-21 07:37:00,
2013-02-21 02:42:00,19.9,13.6,29.78,NW,316,0.0,5.0,76,0.00,,,0.00,meteohub,2013-02-21 07:42:00,
2013-02-21 02:47:00,19.8,13.5,29.78,NNW,343,2.0,5.0,76,0.00,,,0.00,meteohub,2013-02-21 07:47:00,
2013-02-21 02:52:00,19.6,13.3,29.78,NW,316,4.0,6.0,76,0.00,,,0.00,meteohub,2013-02-21 07:52:00,
2013-02-21 02:57:00,19.4,12.7,29.78,NNW,337,3.0,6.0,75,0.00,,,0.00,meteohub,2013-02-21 07:57:00,
2013-02-21 03:02:00,19.2,12.9,29.77,SE,131,0.0,7.0,76,0.00,,,0.00,meteohub,2013-02-21 08:02:00,
2013-02-21 03:07:00,19.0,12.7,29.78,NW,307,7.0,7.0,76,0.00,,,0.00,meteohub,2013-02-21 08:07:00,
2013-02-21 03:12:00,19.0,12.7,29.77,NNW,334,2.0,8.0,76,0.00,,,0.00,meteohub,2013-02-21 08:12:00,
2013-02-21 03:17:00,18.9,12.6,29.78,NW,321,1.0,11.0,76,0.00,,,0.00,meteohub,2013-02-21 08:17:00,
2013-02-21 03:22:00,18.9,12.9,29.78,NW,307,0.0,11.0,77,0.00,,,0.00,meteohub,2013-02-21 08:22:00,
2013-02-21 03:27:00,18.9,12.6,29.78,South,182,2.0,5.0,76,0.00,,,0.00,meteohub,2013-02-21 08:27:00,
2013-02-21 03:32:00,18.7,12.7,29.78,NW,309,3.0,5.0,77,0.00,,,0.00,meteohub,2013-02-21 08:32:00,
2013-02-21 03:37:00,18.3,12.0,29.78,WNW,303,0.0,3.0,76,0.00,,,0.00,meteohub,2013-02-21 08:37:00,
2013-02-21 03:42:00,18.1,11.8,29.78,ENE,58,1.0,3.0,76,0.00,,,0.00,meteohub,2013-02-21 08:42:00,
2013-02-21 03:47:00,18.1,11.8,29.78,NNW,343,2.0,5.0,76,0.00,,,0.00,meteohub,2013-02-21 08:47:00,
2013-02-21 03:52:00,18.1,11.5,29.78,WNW,299,3.0,7.0,75,0.00,,,0.00,meteohub,2013-02-21 08:52:00,
2013-02-21 03:57:00,18.1,11.3,29.78,NNE,16,2.0,9.0,74,0.00,,,0.00,meteohub,2013-02-21 08:57:00,
2013-02-21 04:02:00,18.1,11.3,29.78,NNW,333,3.0,9.0,74,0.00,,,0.00,meteohub,2013-02-21 09:02:00,
2013-02-21 04:07:00,18.1,11.3,29.78,NW,318,3.0,9.0,74,0.00,,,0.00,meteohub,2013-02-21 09:07:00,
2013-02-21 04:12:00,18.1,11.3,29.78,NW,326,5.0,8.0,74,0.00,,,0.00,meteohub,2013-02-21 09:12:00,
2013-02-21 04:17:00,18.1,11.3,29.78,NW,318,3.0,15.0,74,0.00,,,0.00,meteohub,2013-02-21 09:17:00,
2013-02-21 04:22:00,18.0,11.1,29.78,NW,308,2.0,15.0,74,0.00,,,0.00,meteohub,2013-02-21 09:22:00,
2013-02-21 04:27:00,18.0,11.1,29.78,NNW,346,4.0,15.0,74,0.00,,,0.00,meteohub,2013-02-21 09:27:00,
2013-02-21 04:32:00,17.8,10.9,29.78,NNW,331,2.0,12.0,74,0.00,,,0.00,meteohub,2013-02-21 09:32:00,
2013-02-21 04:37:00,17.8,11.1,29.78,ESE,121,0.0,12.0,75,0.00,,,0.00,meteohub,2013-02-21 09:37:00,
2013-02-21 04:42:00,17.8,11.1,29.78,WNW,300,6.0,14.0,75,0.00,,,0.00,meteohub,2013-02-21 09:42:00,
2013-02-21 04:47:00,17.6,11.3,29.78,NW,322,3.0,14.0,76,0.00,,,0.00,meteohub,2013-02-21 09:47:00,
2013-02-21 04:52:00,17.4,11.1,29.78,NNW,344,1.0,14.0,76,0.00,,,0.00,meteohub,2013-02-21 09:52:00,
2013-02-21 04:57:00,17.2,11.5,29.78,NW,324,3.0,7.0,78,0.00,,,0.00,meteohub,2013-02-21 09:57:00,
2013-02-21 05:02:00,17.1,11.7,29.78,NW,305,6.0,8.0,79,0.00,,,0.00,meteohub,2013-02-21 10:02:00,
2013-02-21 05:07:00,16.9,11.8,29.78,NW,318,1.0,8.0,80,0.00,,,0.00,meteohub,2013-02-21 10:07:00,
2013-02-21 05:12:00,16.7,11.7,29.78,NW,320,0.0,8.0,80,0.00,,,0.00,meteohub,2013-02-21 10:12:00,
2013-02-21 05:17:00,16.9,11.5,29.78,SE,124,2.0,6.0,79,0.00,,,0.00,meteohub,2013-02-21 10:17:00,
2013-02-21 05:22:00,16.9,11.5,29.78,WNW,296,1.0,9.0,79,0.00,,,0.00,meteohub,2013-02-21 10:22:00,
2013-02-21 05:27:00,16.9,11.5,29.79,NNW,345,3.0,9.0,79,0.00,,,0.00,meteohub,2013-02-21 10:27:00,
2013-02-21 05:32:00,16.7,11.3,29.79,NW,316,5.0,9.0,79,0.00,,,0.00,meteohub,2013-02-21 10:32:00,
2013-02-21 05:37:00,16.5,10.9,29.80,NNW,343,5.0,12.0,78,0.00,,,0.00,meteohub,2013-02-21 10:37:00,
2013-02-21 05:42:00,16.3,10.4,29.79,SE,135,1.0,14.0,77,0.00,,,0.00,meteohub,2013-02-21 10:42:00,
2013-02-21 05:47:00,16.2,9.9,29.80,WNW,293,9.0,14.0,76,0.00,,,0.00,meteohub,2013-02-21 10:47:00,
2013-02-21 05:52:00,16.2,9.3,29.79,NNW,336,6.0,14.0,74,0.00,,,0.00,meteohub,2013-02-21 10:52:00,
2013-02-21 05:57:00,16.2,9.3,29.80,NNW,330,3.0,12.0,74,0.00,,,0.00,meteohub,2013-02-21 10:57:00,
2013-02-21 06:02:00,16.2,9.3,29.79,North,351,5.0,18.0,74,0.00,,,0.00,meteohub,2013-02-21 11:02:00,
2013-02-21 06:07:00,16.2,9.3,29.80,NNW,330,5.0,18.0,74,0.00,,,0.00,meteohub,2013-02-21 11:07:00,
2013-02-21 06:12:00,16.0,8.8,29.81,North,5,5.0,16.0,73,0.00,,,0.00,meteohub,2013-02-21 11:12:00,
2013-02-21 06:17:00,15.6,8.6,29.82,NW,318,4.0,15.0,73,0.00,,,0.00,meteohub,2013-02-21 11:17:00,
2013-02-21 06:22:00,15.4,8.4,29.82,North,351,5.0,11.0,73,0.00,,,0.00,meteohub,2013-02-21 11:22:00,
2013-02-21 06:27:00,15.3,8.2,29.83,NW,304,1.0,9.0,73,0.00,,,0.00,meteohub,2013-02-21 11:27:00,
2013-02-21 06:32:00,15.1,7.7,29.83,NW,319,3.0,8.0,72,0.00,,,0.00,meteohub,2013-02-21 11:32:00,
2013-02-21 06:37:00,15.3,7.9,29.83,West,272,2.0,10.0,72,0.00,,,0.00,meteohub,2013-02-21 11:37:00,
2013-02-21 06:42:00,15.1,7.7,29.83,WNW,299,1.0,11.0,72,0.00,,,0.00,meteohub,2013-02-21 11:42:00,
2013-02-21 06:47:00,14.9,7.5,29.84,NW,313,7.0,11.0,72,0.00,,,0.00,meteohub,2013-02-21 11:47:00,
2013-02-21 06:52:00,14.5,7.2,29.83,NNW,343,5.0,12.0,72,0.00,,,0.00,meteohub,2013-02-21 11:52:00,
2013-02-21 06:57:00,14.5,7.2,29.83,WNW,301,5.0,12.0,72,0.00,,,0.00,meteohub,2013-02-21 11:57:00,
2013-02-21 07:02:00,14.5,7.2,29.83,NW,319,4.0,16.0,72,0.00,,,0.00,meteohub,2013-02-21 12:02:00,
2013-02-21 07:07:00,14.4,7.0,29.83,NNW,346,6.0,16.0,72,0.00,,,0.00,meteohub,2013-02-21 12:07:00,
2013-02-21 07:12:00,14.4,7.0,29.84,WNW,284,15.0,16.0,72,0.00,,,0.00,meteohub,2013-02-21 12:12:00,
2013-02-21 07:17:00,14.2,6.8,29.84,WNW,303,10.0,15.0,72,0.00,,,0.00,meteohub,2013-02-21 12:17:00,
2013-02-21 07:22:00,14.2,6.8,29.85,NNW,334,9.0,15.0,72,0.00,,,0.00,meteohub,2013-02-21 12:22:00,
2013-02-21 07:27:00,14.2,6.8,29.86,NNW,328,12.0,16.0,72,0.00,,,0.00,meteohub,2013-02-21 12:27:00,
2013-02-21 07:32:00,14.0,6.6,29.85,North,358,3.0,18.0,72,0.00,,,0.00,meteohub,2013-02-21 12:32:00,
2013-02-21 07:37:00,14.0,6.6,29.86,WNW,289,5.0,18.0,72,0.00,,,0.00,meteohub,2013-02-21 12:37:00,
2013-02-21 07:42:00,13.8,6.4,29.86,NNW,340,4.0,18.0,72,0.00,,,0.00,meteohub,2013-02-21 12:42:00,
2013-02-21 07:47:00,14.2,6.8,29.86,NW,320,4.0,14.0,72,0.00,,,0.00,meteohub,2013-02-21 12:47:00,
2013-02-21 07:52:00,14.2,6.4,29.87,NW,326,9.0,16.0,71,0.00,,,0.00,meteohub,2013-02-21 12:52:00,
2013-02-21 07:57:00,14.2,6.4,29.86,West,274,11.0,16.0,71,0.00,,,0.00,meteohub,2013-02-21 12:57:00,
2013-02-21 08:03:00,14.0,6.3,29.87,NW,323,3.0,15.0,71,0.00,,,0.00,meteohub,2013-02-21 13:03:00,
2013-02-21 08:08:00,14.0,6.1,29.87,WSW,243,5.0,15.0,70,0.00,,,0.00,meteohub,2013-02-21 13:08:00,
2013-02-21 08:13:00,14.0,6.3,29.87,NNW,339,4.0,16.0,71,0.00,,,0.00,meteohub,2013-02-21 13:13:00,
2013-02-21 08:18:00,13.8,6.1,29.88,WNW,302,5.0,16.0,71,0.00,,,0.00,meteohub,2013-02-21 13:18:00,
2013-02-21 08:23:00,13.8,6.1,29.87,WNW,295,11.0,15.0,71,0.00,,,0.00,meteohub,2013-02-21 13:23:00,
2013-02-21 08:28:00,13.8,6.1,29.87,North,0,6.0,15.0,71,0.00,,,0.00,meteohub,2013-02-21 13:28:00,
2013-02-21 08:33:00,13.8,6.1,29.87,NNW,337,4.0,18.0,71,0.00,,,0.00,meteohub,2013-02-21 13:33:00,
2013-02-21 08:38:00,13.6,5.7,29.88,NNW,332,5.0,18.0,70,0.00,,,0.00,meteohub,2013-02-21 13:38:00,
2013-02-21 08:43:00,13.6,6.1,29.88,NW,315,2.0,18.0,71,0.00,,,0.00,meteohub,2013-02-21 13:43:00,
2013-02-21 08:48:00,13.5,5.9,29.88,NW,320,7.0,18.0,71,0.00,,,0.00,meteohub,2013-02-21 13:48:00,
2013-02-21 08:53:00,13.5,5.9,29.88,NNW,328,3.0,18.0,71,0.00,,,0.00,meteohub,2013-02-21 13:53:00,
2013-02-21 08:58:00,13.5,5.9,29.88,NNW,337,7.0,18.0,71,0.00,,,0.00,meteohub,2013-02-21 13:58:00,
2013-02-21 09:03:00,13.5,6.1,29.88,North,1,3.0,21.0,72,0.00,,,0.00,meteohub,2013-02-21 14:03:00,
2013-02-21 09:08:00,13.6,5.7,29.88,North,349,6.0,21.0,70,0.00,,,0.00,meteohub,2013-02-21 14:08:00,
2013-02-21 09:13:00,13.5,5.9,29.88,North,355,9.0,16.0,71,0.00,,,0.00,meteohub,2013-02-21 14:13:00,
2013-02-21 09:18:00,13.3,5.4,29.89,WNW,282,14.0,19.0,70,0.00,,,0.00,meteohub,2013-02-21 14:18:00,
2013-02-21 09:23:00,13.3,5.4,29.89,WNW,302,12.0,25.0,70,0.00,,,0.00,meteohub,2013-02-21 14:23:00,
2013-02-21 09:28:00,13.1,5.2,29.88,North,3,5.0,25.0,70,0.00,,,0.00,meteohub,2013-02-21 14:28:00,
2013-02-21 09:33:00,13.3,5.7,29.88,NNW,345,12.0,25.0,71,0.00,,,0.00,meteohub,2013-02-21 14:33:00,
2013-02-21 09:38:00,13.5,5.9,29.89,NW,311,17.0,26.0,71,0.00,,,0.00,meteohub,2013-02-21 14:38:00,
2013-02-21 09:43:00,13.6,6.1,29.89,North,352,13.0,26.0,71,0.00,,,0.00,meteohub,2013-02-21 14:43:00,
2013-02-21 09:48:00,14.2,6.3,29.89,NW,309,5.0,26.0,70,0.00,,,0.00,meteohub,2013-02-21 14:48:00,
2013-02-21 09:53:00,14.4,6.4,29.90,NNW,343,15.0,25.0,70,0.00,,,0.00,meteohub,2013-02-21 14:53:00,
2013-02-21 09:58:00,14.4,6.4,29.90,SSW,204,6.0,25.0,70,0.00,,,0.00,meteohub,2013-02-21 14:58:00,
2013-02-21 10:03:00,14.5,6.6,29.91,NNW,339,12.0,25.0,70,0.00,,,0.00,meteohub,2013-02-21 15:03:00,
2013-02-21 10:09:00,14.7,6.8,29.90,NNW,336,4.0,21.0,70,0.00,,,0.00,meteohub,2013-02-21 15:09:00,
2013-02-21 10:14:00,14.7,6.8,29.91,NW,322,9.0,19.0,70,0.00,,,0.00,meteohub,2013-02-21 15:14:00,
2013-02-21 10:19:00,15.1,7.0,29.90,NNW,348,4.0,27.0,70,0.00,,,0.00,meteohub,2013-02-21 15:19:00,
2013-02-21 10:24:00,15.3,7.0,29.91,WNW,301,4.0,27.0,69,0.00,,,0.00,meteohub,2013-02-21 15:24:00,
2013-02-21 10:29:00,15.4,7.2,29.91,NNW,329,7.0,27.0,69,0.00,,,0.00,meteohub,2013-02-21 15:29:00,
2013-02-21 10:34:00,15.6,7.3,29.91,NW,304,17.0,22.0,69,0.00,,,0.00,meteohub,2013-02-21 15:34:00,
2013-02-21 10:39:00,15.4,7.2,29.91,North,349,10.0,22.0,69,0.00,,,0.00,meteohub,2013-02-21 15:39:00,
2013-02-21 10:44:00,15.6,7.3,29.91,NW,309,11.0,23.0,69,0.00,,,0.00,meteohub,2013-02-21 15:44:00,
2013-02-21 10:49:00,15.6,7.0,29.91,NW,305,8.0,24.0,68,0.00,,,0.00,meteohub,2013-02-21 15:49:00,
2013-02-21 10:54:00,15.8,7.5,29.92,North,2,16.0,24.0,69,0.00,,,0.00,meteohub,2013-02-21 15:54:00,
2013-02-21 10:59:00,16.2,7.5,29.91,North,350,8.0,24.0,68,0.00,,,0.00,meteohub,2013-02-21 15:59:00,
2013-02-21 11:04:00,16.2,7.5,29.91,NNW,330,15.0,27.0,68,0.00,,,0.00,meteohub,2013-02-21 16:04:00,
2013-02-21 11:09:00,16.3,7.9,29.91,North,10,7.0,27.0,69,0.00,,,0.00,meteohub,2013-02-21 16:09:00,
2013-02-21 11:14:00,16.5,7.9,29.91,NNW,336,6.0,27.0,68,0.00,,,0.00,meteohub,2013-02-21 16:14:00,
2013-02-21 11:19:00,17.1,8.2,29.92,NNW,346,5.0,24.0,68,0.00,,,0.00,meteohub,2013-02-21 16:19:00,
2013-02-21 11:24:00,17.1,8.2,29.92,WNW,286,15.0,23.0,68,0.00,,,0.00,meteohub,2013-02-21 16:24:00,
2013-02-21 11:29:00,17.1,8.2,29.92,North,350,7.0,25.0,68,0.00,,,0.00,meteohub,2013-02-21 16:29:00,
2013-02-21 11:34:00,17.2,8.4,29.92,NNW,331,16.0,25.0,68,0.00,,,0.00,meteohub,2013-02-21 16:34:00,
2013-02-21 11:39:00,17.1,8.2,29.92,NW,317,13.0,25.0,68,0.00,,,0.00,meteohub,2013-02-21 16:39:00,
2013-02-21 11:44:00,17.2,8.4,29.91,NW,317,9.0,22.0,68,0.00,,,0.00,meteohub,2013-02-21 16:44:00,
2013-02-21 11:49:00,17.2,8.4,29.93,NW,307,7.0,24.0,68,0.00,,,0.00,meteohub,2013-02-21 16:49:00,
2013-02-21 11:55:00,17.4,8.4,29.92,North,359,7.0,24.0,67,0.00,,,0.00,meteohub,2013-02-21 16:55:00,
2013-02-21 12:00:00,18.0,8.8,29.93,NNW,335,10.0,24.0,67,0.00,,,0.00,meteohub,2013-02-21 17:00:00,
2013-02-21 12:05:00,18.1,8.8,29.93,North,356,7.0,22.0,66,0.00,,,0.00,meteohub,2013-02-21 17:05:00,
2013-02-21 12:10:00,18.1,8.8,29.93,NNW,332,7.0,21.0,66,0.00,,,0.00,meteohub,2013-02-21 17:10:00,
2013-02-21 12:15:00,18.3,9.0,29.93,NNW,328,11.0,20.0,66,0.00,,,0.00,meteohub,2013-02-21 17:15:00,
2013-02-21 12:20:00,18.3,9.0,29.94,NNE,20,14.0,21.0,66,0.00,,,0.00,meteohub,2013-02-21 17:20:00,
2013-02-21 12:25:00,18.1,8.8,29.94,NNW,336,8.0,24.0,66,0.00,,,0.00,meteohub,2013-02-21 17:25:00,
2013-02-21 12:30:00,18.3,9.0,29.94,NW,324,15.0,24.0,66,0.00,,,0.00,meteohub,2013-02-21 17:30:00,
2013-02-21 12:35:00,18.7,9.1,29.94,NNW,337,7.0,24.0,66,0.00,,,0.00,meteohub,2013-02-21 17:35:00,
2013-02-21 12:40:00,18.9,9.0,29.94,NNW,348,11.0,23.0,65,0.00,,,0.00,meteohub,2013-02-21 17:40:00,
2013-02-21 12:45:00,19.0,9.1,29.94,NNW,328,12.0,21.0,65,0.00,,,0.00,meteohub,2013-02-21 17:45:00,
2013-02-21 12:50:00,19.0,9.5,29.94,East,87,3.0,20.0,66,0.00,,,0.00,meteohub,2013-02-21 17:50:00,
2013-02-21 12:55:00,19.0,9.5,29.95,WNW,299,7.0,21.0,66,0.00,,,0.00,meteohub,2013-02-21 17:55:00,
2013-02-21 13:00:00,19.0,9.5,29.95,NNW,346,10.0,21.0,66,0.00,,,0.00,meteohub,2013-02-21 18:00:00,
2013-02-21 13:05:00,19.0,9.5,29.95,NW,310,13.0,21.0,66,0.00,,,0.00,meteohub,2013-02-21 18:05:00,
2013-02-21 13:10:00,19.2,9.7,29.95,NNW,339,8.0,21.0,66,0.00,,,0.00,meteohub,2013-02-21 18:10:00,
2013-02-21 13:15:00,19.2,9.7,29.96,NNW,347,3.0,19.0,66,0.00,,,0.00,meteohub,2013-02-21 18:15:00,
2013-02-21 13:20:00,19.2,9.0,29.95,North,353,6.0,19.0,64,0.00,,,0.00,meteohub,2013-02-21 18:20:00,
2013-02-21 13:25:00,19.6,9.3,29.96,WNW,302,9.0,17.0,64,0.00,,,0.00,meteohub,2013-02-21 18:25:00,
2013-02-21 13:30:00,19.4,9.9,29.96,NNW,334,9.0,19.0,66,0.00,,,0.00,meteohub,2013-02-21 18:30:00,
2013-02-21 13:36:00,19.4,9.9,29.96,NNW,337,7.0,19.0,66,0.00,,,0.00,meteohub,2013-02-21 18:36:00,
2013-02-21 13:41:00,19.8,10.6,29.96,North,359,8.0,19.0,67,0.00,,,0.00,meteohub,2013-02-21 18:41:00,
2013-02-21 13:46:00,19.9,10.8,29.96,NNW,343,12.0,19.0,67,0.00,,,0.00,meteohub,2013-02-21 18:46:00,
2013-02-21 13:51:00,20.1,10.9,29.97,WNW,291,12.0,19.0,67,0.00,,,0.00,meteohub,2013-02-21 18:51:00,
2013-02-21 13:56:00,20.1,10.9,29.97,NNW,334,5.0,25.0,67,0.00,,,0.00,meteohub,2013-02-21 18:56:00,
2013-02-21 14:01:00,21.2,11.7,29.97,NNW,336,5.0,25.0,66,0.00,,,0.00,meteohub,2013-02-21 19:01:00,
2013-02-21 14:06:00,21.4,11.5,29.98,West,263,10.0,25.0,65,0.00,,,0.00,meteohub,2013-02-21 19:06:00,
2013-02-21 14:11:00,20.7,10.4,29.98,NNW,331,9.0,16.0,64,0.00,,,0.00,meteohub,2013-02-21 19:11:00,
2013-02-21 14:16:00,20.5,10.9,29.98,WNW,299,7.0,16.0,66,0.00,,,0.00,meteohub,2013-02-21 19:16:00,
2013-02-21 14:21:00,20.7,11.1,29.98,WNW,302,4.0,16.0,66,0.00,,,0.00,meteohub,2013-02-21 19:21:00,
2013-02-21 14:26:00,20.3,10.8,29.99,North,358,6.0,16.0,66,0.00,,,0.00,meteohub,2013-02-21 19:26:00,
2013-02-21 14:31:00,19.9,11.5,29.99,NNE,16,12.0,23.0,69,0.00,,,0.00,meteohub,2013-02-21 19:31:00,
2013-02-21 14:36:00,19.9,11.5,29.99,WNW,291,10.0,23.0,69,0.00,,,0.00,meteohub,2013-02-21 19:36:00,
2013-02-21 14:41:00,19.8,11.3,29.99,NW,322,5.0,20.0,69,0.00,,,0.00,meteohub,2013-02-21 19:41:00,
2013-02-21 14:46:00,19.8,11.5,30.00,WNW,303,11.0,17.0,70,0.00,,,0.00,meteohub,2013-02-21 19:46:00,
2013-02-21 14:51:00,19.9,12.0,30.00,NNW,347,7.0,17.0,71,0.00,,,0.00,meteohub,2013-02-21 19:51:00,
2013-02-21 14:56:00,20.5,12.2,30.00,North,351,5.0,17.0,70,0.00,,,0.00,meteohub,2013-02-21 19:56:00,
2013-02-21 15:01:00,20.5,12.0,30.01,North,349,7.0,18.0,69,0.00,,,0.00,meteohub,2013-02-21 20:01:00,
2013-02-21 15:07:00,20.5,12.2,30.01,NW,323,13.0,18.0,70,0.00,,,0.00,meteohub,2013-02-21 20:07:00,
2013-02-21 15:12:00,20.5,12.6,30.00,NNW,337,16.0,19.0,71,0.00,,,0.00,meteohub,2013-02-21 20:12:00,
2013-02-21 15:17:00,20.7,12.7,30.01,NNW,337,8.0,19.0,71,0.00,,,0.00,meteohub,2013-02-21 20:17:00,
2013-02-21 15:22:00,20.5,12.2,30.01,NNE,27,5.0,19.0,70,0.00,,,0.00,meteohub,2013-02-21 20:22:00,
2013-02-21 15:27:00,20.1,11.8,30.02,West,268,6.0,22.0,70,0.00,,,0.00,meteohub,2013-02-21 20:27:00,
2013-02-21 15:32:00,20.1,12.2,30.02,NNW,328,9.0,22.0,71,0.00,,,0.00,meteohub,2013-02-21 20:32:00,
2013-02-21 15:37:00,20.1,12.2,30.03,NW,315,11.0,22.0,71,0.00,,,0.00,meteohub,2013-02-21 20:37:00,
2013-02-21 15:42:00,19.9,12.0,30.03,WNW,299,10.0,17.0,71,0.00,,,0.00,meteohub,2013-02-21 20:42:00,
2013-02-21 15:47:00,19.9,12.4,30.04,NNW,331,8.0,24.0,72,0.00,,,0.00,meteohub,2013-02-21 20:47:00,
2013-02-21 15:52:00,19.9,12.7,30.04,NNE,27,16.0,24.0,73,0.00,,,0.00,meteohub,2013-02-21 20:52:00,
2013-02-21 15:57:00,19.9,12.4,30.04,NNW,332,6.0,24.0,72,0.00,,,0.00,meteohub,2013-02-21 20:57:00,
2013-02-21 16:02:00,19.9,12.7,30.05,WNW,294,9.0,18.0,73,0.00,,,0.00,meteohub,2013-02-21 21:02:00,
2013-02-21 16:07:00,19.9,12.7,30.04,NW,322,9.0,18.0,73,0.00,,,0.00,meteohub,2013-02-21 21:07:00,
2013-02-21 16:12:00,19.8,12.2,30.05,NNE,15,14.0,19.0,72,0.00,,,0.00,meteohub,2013-02-21 21:12:00,
2013-02-21 16:17:00,19.9,12.7,30.06,NNW,339,7.0,19.0,73,0.00,,,0.00,meteohub,2013-02-21 21:17:00,
2013-02-21 16:22:00,19.9,12.4,30.06,NNW,339,13.0,18.0,72,0.00,,,0.00,meteohub,2013-02-21 21:22:00,
2013-02-21 16:27:00,19.9,12.7,30.07,WNW,295,7.0,18.0,73,0.00,,,0.00,meteohub,2013-02-21 21:27:00,
2013-02-21 16:32:00,19.9,12.7,30.07,NW,313,5.0,20.0,73,0.00,,,0.00,meteohub,2013-02-21 21:32:00,
2013-02-21 16:37:00,19.9,12.7,30.08,NW,305,8.0,20.0,73,0.00,,,0.00,meteohub,2013-02-21 21:37:00,
2013-02-21 16:42:00,19.9,12.9,30.08,North,355,6.0,15.0,74,0.00,,,0.00,meteohub,2013-02-21 21:42:00,
2013-02-21 16:47:00,19.9,13.3,30.09,NW,326,8.0,15.0,75,0.00,,,0.00,meteohub,2013-02-21 21:47:00,
2013-02-21 16:52:00,19.8,13.1,30.09,NW,311,5.0,15.0,75,0.00,,,0.00,meteohub,2013-02-21 21:52:00,
2013-02-21 16:57:00,19.8,13.1,30.09,North,5,1.0,14.0,75,0.00,,,0.00,meteohub,2013-02-21 21:57:00,
2013-02-21 17:02:00,19.8,13.1,30.09,WNW,296,4.0,12.0,75,0.00,,,0.00,meteohub,2013-02-21 22:02:00,
2013-02-21 17:07:00,19.6,13.3,30.09,NW,320,5.0,13.0,76,0.00,,,0.00,meteohub,2013-02-21 22:07:00,
2013-02-21 17:12:00,19.6,13.3,30.09,NNW,334,7.0,13.0,76,0.00,,,0.00,meteohub,2013-02-21 22:12:00,
2013-02-21 17:17:00,19.4,13.1,30.10,NNW,331,8.0,12.0,76,0.00,,,0.00,meteohub,2013-02-21 22:17:00,
2013-02-21 17:22:00,19.4,13.1,30.10,WNW,299,6.0,13.0,76,0.00,,,0.00,meteohub,2013-02-21 22:22:00,
2013-02-21 17:27:00,19.2,13.3,30.11,NNW,328,2.0,15.0,77,0.00,,,0.00,meteohub,2013-02-21 22:27:00,
2013-02-21 17:32:00,19.2,13.3,30.12,West,280,7.0,15.0,77,0.00,,,0.00,meteohub,2013-02-21 22:32:00,
2013-02-21 17:37:00,19.2,13.5,30.12,NNW,339,6.0,15.0,78,0.00,,,0.00,meteohub,2013-02-21 22:37:00,
2013-02-21 17:42:00,19.2,13.5,30.13,NW,304,11.0,14.0,78,0.00,,,0.00,meteohub,2013-02-21 22:42:00,
2013-02-21 17:47:00,19.2,13.5,30.13,NNW,342,11.0,13.0,78,0.00,,,0.00,meteohub,2013-02-21 22:47:00,
2013-02-21 17:52:00,19.2,13.5,30.13,NNW,329,5.0,17.0,78,0.00,,,0.00,meteohub,2013-02-21 22:52:00,
2013-02-21 17:57:00,19.2,13.5,30.13,NNE,17,6.0,17.0,78,0.00,,,0.00,meteohub,2013-02-21 22:57:00,
2013-02-21 18:02:00,19.2,13.5,30.13,WNW,290,7.0,17.0,78,0.00,,,0.00,meteohub,2013-02-21 23:02:00,
2013-02-21 18:07:00,19.2,13.5,30.13,NW,309,9.0,18.0,78,0.00,,,0.00,meteohub,2013-02-21 23:07:00,
2013-02-21 18:12:00,19.4,13.6,30.13,NW,318,6.0,18.0,78,0.00,,,0.00,meteohub,2013-02-21 23:12:00,
2013-02-21 18:17:00,19.4,13.6,30.14,North,351,7.0,18.0,78,0.00,,,0.00,meteohub,2013-02-21 23:17:00,
2013-02-21 18:22:00,19.4,14.0,30.14,NNE,32,5.0,14.0,79,0.00,,,0.00,meteohub,2013-02-21 23:22:00,
2013-02-21 18:27:00,19.4,14.0,30.15,WNW,298,9.0,14.0,79,0.00,,,0.00,meteohub,2013-02-21 23:27:00,
2013-02-21 18:32:00,19.4,14.0,30.15,NNW,346,10.0,15.0,79,0.00,,,0.00,meteohub,2013-02-21 23:32:00,
2013-02-21 18:37:00,19.2,13.8,30.15,West,280,11.0,15.0,79,0.00,,,0.00,meteohub,2013-02-21 23:37:00,
2013-02-21 18:42:00,19.4,14.0,30.15,NW,309,10.0,15.0,79,0.00,,,0.00,meteohub,2013-02-21 23:42:00,
2013-02-21 18:47:00,19.6,14.2,30.16,NNW,347,6.0,16.0,79,0.00,,,0.00,meteohub,2013-02-21 23:47:00,
2013-02-21 18:52:00,19.8,14.4,30.17,NW,326,5.0,16.0,79,0.00,,,0.00,meteohub,2013-02-21 23:52:00,
2013-02-21 18:57:00,19.8,14.4,30.17,WNW,287,4.0,16.0,79,0.00,,,0.00,meteohub,2013-02-21 23:57:00,
2013-02-21 19:02:00,19.8,14.4,30.17,NW,307,6.0,14.0,79,0.00,,,0.00,meteohub,2013-02-22 00:02:00,
2013-02-21 19:07:00,19.9,14.7,30.17,NNW,342,5.0,14.0,80,0.00,,,0.00,meteohub,2013-02-22 00:07:00,
2013-02-21 19:12:00,19.9,14.7,30.18,NW,313,2.0,9.0,80,0.00,,,0.00,meteohub,2013-02-22 00:12:00,
2013-02-21 19:17:00,19.9,14.7,30.18,WNW,296,2.0,10.0,80,0.00,,,0.00,meteohub,2013-02-22 00:17:00,
2013-02-21 19:22:00,19.9,14.7,30.18,NNW,332,0.0,11.0,80,0.00,,,0.00,meteohub,2013-02-22 00:22:00,
2013-02-21 19:27:00,19.9,14.7,30.18,NNW,343,4.0,11.0,80,0.00,,,0.00,meteohub,2013-02-22 00:27:00,
2013-02-21 19:32:00,20.1,14.9,30.18,North,7,6.0,11.0,80,0.00,,,0.00,meteohub,2013-02-22 00:32:00,
2013-02-21 19:37:00,20.5,15.3,30.19,NW,318,2.0,9.0,80,0.00,,,0.00,meteohub,2013-02-22 00:37:00,
2013-02-21 19:42:00,20.7,15.4,30.19,NW,320,5.0,9.0,80,0.00,,,0.00,meteohub,2013-02-22 00:42:00,
2013-02-21 19:47:00,20.7,15.4,30.19,NNW,339,4.0,9.0,80,0.00,,,0.00,meteohub,2013-02-22 00:47:00,
2013-02-21 19:52:00,20.8,15.6,30.19,NE,37,5.0,10.0,80,0.00,,,0.00,meteohub,2013-02-22 00:52:00,
2013-02-21 19:57:00,21.0,15.8,30.19,NNW,332,2.0,10.0,80,0.00,,,0.00,meteohub,2013-02-22 00:57:00,
2013-02-21 20:02:00,21.6,16.3,30.19,NW,305,3.0,10.0,80,0.00,,,0.00,meteohub,2013-02-22 01:02:00,
2013-02-21 20:07:00,21.7,16.2,30.19,NW,308,7.0,9.0,79,0.00,,,0.00,meteohub,2013-02-22 01:07:00,
2013-02-21 20:12:00,21.9,16.7,30.19,NNW,343,5.0,11.0,80,0.00,,,0.00,meteohub,2013-02-22 01:12:00,
2013-02-21 20:17:00,22.8,17.2,30.19,WNW,297,8.0,11.0,79,0.00,,,0.00,meteohub,2013-02-22 01:17:00,
2013-02-21 20:22:00,22.5,16.7,30.20,WNW,298,9.0,11.0,78,0.00,,,0.00,meteohub,2013-02-22 01:22:00,
2013-02-21 20:27:00,22.3,16.5,30.20,NNW,338,6.0,11.0,78,0.00,,,0.00,meteohub,2013-02-22 01:27:00,
2013-02-21 20:32:00,22.3,16.7,30.20,West,272,10.0,11.0,79,0.00,,,0.00,meteohub,2013-02-22 01:32:00,
2013-02-21 20:37:00,22.8,17.2,30.19,North,10,5.0,16.0,79,0.00,,,0.00,meteohub,2013-02-22 01:37:00,
2013-02-21 20:42:00,23.2,17.4,30.19,NW,326,5.0,16.0,78,0.00,,,0.00,meteohub,2013-02-22 01:42:00,
2013-02-21 20:47:00,23.5,17.8,30.19,NNW,342,4.0,13.0,78,0.00,,,0.00,meteohub,2013-02-22 01:47:00,
2013-02-21 20:52:00,24.1,18.5,30.19,NW,313,5.0,12.0,79,0.00,,,0.00,meteohub,2013-02-22 01:52:00,
2013-02-21 20:57:00,25.0,18.9,30.19,NW,316,9.0,18.0,77,0.00,,,0.00,meteohub,2013-02-22 01:57:00,
2013-02-21 21:02:00,25.2,19.0,30.20,NW,314,7.0,18.0,77,0.00,,,0.00,meteohub,2013-02-22 02:02:00,
2013-02-21 21:07:00,25.3,19.2,30.20,NW,311,5.0,18.0,77,0.00,,,0.00,meteohub,2013-02-22 02:07:00,
2013-02-21 21:12:00,25.3,18.9,30.21,NNW,343,4.0,16.0,76,0.00,,,0.00,meteohub,2013-02-22 02:12:00,
2013-02-21 21:17:00,25.3,18.9,30.21,NNW,335,8.0,16.0,76,0.00,,,0.00,meteohub,2013-02-22 02:17:00,
2013-02-21 21:22:00,25.3,18.9,30.22,WNW,286,13.0,16.0,76,0.00,,,0.00,meteohub,2013-02-22 02:22:00,
2013-02-21 21:27:00,25.3,18.9,30.22,WNW,297,9.0,14.0,76,0.00,,,0.00,meteohub,2013-02-22 02:27:00,
2013-02-21 21:32:00,25.3,18.9,30.23,North,6,5.0,15.0,76,0.00,,,0.00,meteohub,2013-02-22 02:32:00,
2013-02-21 21:37:00,25.3,19.2,30.23,North,351,8.0,15.0,77,0.00,,,0.00,meteohub,2013-02-22 02:37:00,
2013-02-21 21:42:00,25.3,18.9,30.24,WNW,288,6.0,15.0,76,0.00,,,0.00,meteohub,2013-02-22 02:42:00,
2013-02-21 21:47:00,25.3,19.2,30.25,NW,314,8.0,11.0,77,0.00,,,0.00,meteohub,2013-02-22 02:47:00,
2013-02-21 21:53:00,25.5,19.4,30.26,WNW,291,6.0,14.0,77,0.00,,,0.00,meteohub,2013-02-22 02:53:00,
2013-02-21 21:58:00,25.5,19.4,30.27,NNW,347,2.0,14.0,77,0.00,,,0.00,meteohub,2013-02-22 02:58:00,
2013-02-21 22:03:00,23.7,16.3,30.27,WNW,295,8.0,13.0,73,0.00,,,0.00,meteohub,2013-02-22 03:03:00,
2013-02-21 22:08:00,21.6,15.4,30.26,WNW,289,6.0,14.0,77,0.00,,,0.00,meteohub,2013-02-22 03:08:00,
2013-02-21 22:13:00,20.8,15.4,30.26,NNW,334,2.0,14.0,79,0.00,,,0.00,meteohub,2013-02-22 03:13:00,
2013-02-21 22:18:00,20.7,15.4,30.27,NNW,344,1.0,14.0,80,0.00,,,0.00,meteohub,2013-02-22 03:18:00,
2013-02-21 22:23:00,20.8,15.6,30.27,NW,308,5.0,11.0,80,0.00,,,0.00,meteohub,2013-02-22 03:23:00,
2013-02-21 22:28:00,20.8,15.6,30.27,North,357,5.0,11.0,80,0.00,,,0.00,meteohub,2013-02-22 03:28:00,
2013-02-21 22:33:00,20.5,15.3,30.27,NW,305,7.0,11.0,80,0.00,,,0.00,meteohub,2013-02-22 03:33:00,
2013-02-21 22:38:00,20.3,15.4,30.27,NNW,330,3.0,12.0,81,0.00,,,0.00,meteohub,2013-02-22 03:38:00,
2013-02-21 22:43:00,20.1,15.3,30.27,WNW,295,1.0,12.0,81,0.00,,,0.00,meteohub,2013-02-22 03:43:00,
2013-02-21 22:48:00,20.1,15.3,30.29,NW,309,7.0,12.0,81,0.00,,,0.00,meteohub,2013-02-22 03:48:00,
2013-02-21 22:53:00,19.9,15.1,30.29,NW,325,8.0,10.0,81,0.00,,,0.00,meteohub,2013-02-22 03:53:00,
2013-02-21 22:58:00,19.9,15.6,30.28,NW,319,5.0,13.0,83,0.00,,,0.00,meteohub,2013-02-22 03:58:00,
2013-02-21 23:03:00,19.9,15.6,30.28,NW,317,6.0,13.0,83,0.00,,,0.00,meteohub,2013-02-22 04:03:00,
2013-02-21 23:08:00,19.8,15.4,30.28,NW,305,6.0,16.0,83,0.00,,,0.00,meteohub,2013-02-22 04:08:00,
2013-02-21 23:13:00,19.8,15.4,30.29,NNW,332,2.0,18.0,83,0.00,,,0.00,meteohub,2013-02-22 04:13:00,
2013-02-21 23:18:00,19.8,15.8,30.30,NNW,332,10.0,18.0,84,0.00,,,0.00,meteohub,2013-02-22 04:18:00,
2013-02-21 23:24:00,19.8,15.4,30.30,NNW,330,4.0,18.0,83,0.00,,,0.00,meteohub,2013-02-22 04:24:00,
2013-02-21 23:29:00,19.8,15.8,30.32,NW,305,4.0,18.0,84,0.00,,,0.00,meteohub,2013-02-22 04:29:00,
2013-02-21 23:34:00,19.6,15.6,30.33,NNW,337,0.0,16.0,84,0.00,,,0.00,meteohub,2013-02-22 04:34:00,
2013-02-21 23:39:00,19.6,15.6,30.33,NW,322,9.0,13.0,84,0.00,,,0.00,meteohub,2013-02-22 04:39:00,
2013-02-21 23:44:00,19.6,15.6,30.34,SW,219,2.0,14.0,84,0.00,,,0.00,meteohub,2013-02-22 04:44:00,
2013-02-21 23:49:00,19.6,15.8,30.34,NNW,332,5.0,14.0,85,0.00,,,0.00,meteohub,2013-02-22 04:49:00,
2013-02-21 23:54:00,19.8,16.0,30.35,NNW,328,7.0,14.0,85,0.00,,,0.00,meteohub,2013-02-22 04:54:00,
2013-02-21 23:59:00,19.8,16.0,30.35,NW,324,8.0,12.0,85,0.00,,,0.00,meteohub,2013-02-22 04:59:00,